CST,Max TemperatureF,Mean TemperatureF,Min TemperatureF,Max Dew PointF,MeanDew PointF,Min DewpointF,Max Humidity, Mean Humidity, Min Humidity, Max Sea Level PressureIn, Mean Sea Level PressureIn, Min Sea Level PressureIn, Max VisibilityMiles, Mean VisibilityMiles, Min VisibilityMiles, Max Wind SpeedMPH, Mean Wind SpeedMPH, Max Gust SpeedMPH,PrecipitationIn, CloudCover, Events, WindDirDegrees
2013-2-1,10,5,0,7,-2,-9,85,68,58,30.35,30.26,30.15,10,8,1,18,15,26,0.00,3,Snow,260
2013-2-2,17,9,1,14,7,-6,88,77,61,30.15,30.05,29.99,10,4,1,13,5,,0.04,7,Snow,300
2013-2-3,19,13,7,13,7,-1,84,71,59,30.07,30.01,29.94,10,7,1,16,8,25,0.01,6,Snow,270
2013-2-4,25,16,7,19,12,-1,86,78,59,30.03,29.96,29.89,10,5,1,13,4,,0.05,7,Snow,3
2013-2-5,28,16,3,21,15,-2,86,76,66,30.11,29.88,29.77,10,5,0,15,7,22,0.01,7,Fog-Snow,259
2013-2-6,34,21,8,28,18,5,88,72,56,30.26,30.18,30.12,10,7,4,10,3,,0.00,4,,180
2013-2-7,33,30,27,31,29,24,93,87,75,30.12,30.00,29.89,4,2,0,16,8,22,0.74,8,Fog-Rain-Snow,119
2013-2-8,26,20,15,23,19,12,91,82,74,30.42,30.23,29.97,10,8,2,16,12,23,0.00,7,Snow,322
2013-2-9,32,19,6,26,13,3,100,85,73,30.42,30.30,30.10,10,4,0,12,3,,0.00,5,Fog,189
2013-2-10,45,36,28,41,33,24,93,84,65,30.09,29.72,29.46,10,7,1,22,12,32,0.22,6,Rain,159
2013-2-11,41,34,27,30,24,19,82,72,65,30.01,29.69,29.47,10,8,2,37,27,48,0.00,8,Snow,258
2013-2-12,27,24,21,18,17,16,82,73,69,30.10,30.02,29.92,10,9,5,16,12,25,0.00,5,,252
2013-2-13,39,30,21,29,24,17,88,77,60,29.90,29.78,29.72,9,6,3,9,7,,0.00,2,,232
2013-2-14,37,32,26,34,28,19,93,76,61,29.98,29.74,29.61,10,9,2,21,12,31,0.00,7,,258
2013-2-15,28,23,16,23,14,5,86,66,47,30.20,30.11,29.98,10,8,1,14,8,20,0.01,4,Snow,318
2013-2-16,18,13,8,4,1,-2,73,60,45,30.22,30.18,30.15,10,10,10,15,9,,0.00,3,,301
2013-2-17,28,14,3,13,3,-3,76,54,37,30.25,30.17,30.02,10,10,10,14,5,,0.00,0,,226
2013-2-18,48,38,28,43,32,14,93,76,56,29.99,29.56,29.38,10,7,2,20,14,28,0.38,6,Rain-Snow,214
2013-2-19,30,20,10,28,11,-1,93,73,56,30.18,29.75,29.49,10,6,2,28,21,38,0.00,7,Snow,276
2013-2-20,21,14,8,10,4,-2,74,63,57,30.38,30.33,30.20,10,10,10,15,12,23,0.00,1,,308
2013-2-21,28,22,17,22,18,10,86,77,68,30.41,30.29,30.08,10,10,8,25,10,31,0.00,8,,28
2013-2-22,32,29,26,28,24,21,93,86,78,30.04,29.89,29.78,10,3,0,28,18,33,0.07,8,Fog-Snow,146
2013-2-23,28,23,17,23,18,11,81,74,61,29.96,29.90,29.84,10,8,4,16,12,,0.00,5,,248
2013-2-24,36,24,12,23,17,10,89,74,55,30.16,30.09,29.96,10,9,2,9,6,,0.00,0,,264
2013-2-25,37,26,14,28,21,11,91,77,57,30.19,30.14,30.03,10,7,3,10,3,,0.00,1,,93
2013-2-26,35,32,30,31,29,25,96,83,67,30.01,29.69,29.56,10,4,0,26,20,36,0.19,6,Fog-Snow,52
2013-2-27,35,32,30,32,30,28,93,88,81,29.72,29.60,29.53,4,2,0,15,13,22,0.22,8,Fog-Snow,355
2013-2-28,35,30,26,30,26,19,89,79,69,30.10,29.90,29.71,10,7,2,17,12,22,0.00,8,Snow,353